Regional Weather Roundup
Issued by NWS

Home | Current Version | Previous Version | Graphics & Text | Print | Product List | Glossary On
Versions: 1 2 3 4 5 6 7 8 9 10 11 12 13 14 15 16 17 18 19 20 21 22 23 24 25 26 27 28 29 30 31 32 33 34 35 36 37 38 39 40 41 42 43 44 45 46 47 48 49 50
000
ASUS44 KMEG 251500
RWRTN
TENNESSEE HOURLY STATE WEATHER ROUNDUP
NATIONAL WEATHER SERVICE MEMPHIS TN
1000 AM CDT WED MAY 25 2016

TNZ002-004-019-021-049-052-054-088>092-251600-
WEST TENNESSEE

CITY           SKY/WX    TMP DP  RH WIND       PRES   REMARKS
MEMPHIS INTL   CLOUDY    76  69  79 SW12G21   30.12R
NWS MEMPHIS      N/A     76 N/A N/A MISG        N/A
JACKSON        PTSUNNY   77  69  76 SW9       30.12R
DYERSBURG      CLOUDY    75  66  73 S7        30.09S
UNION CITY     PTSUNNY   73  66  78 S6        30.09S
PARIS          SUNNY     75  64  69 S10       30.12S
LEXINGTON      SUNNY     79  66  65 SW10      30.13S
$$

TNZ008-025-027-028-033-062-065-066-251600-
NORTH MIDDLE TENNESSEE

CITY           SKY/WX    TMP DP  RH WIND       PRES   REMARKS
NASHVILLE      CLOUDY    74  61  63 CALM      30.17S
CLARKSVILLE    CLOUDY    73  66  78 S9        30.13F
COOKEVILLE     MOSUNNY   73  61  64 S3        30.20S
CROSSVILLE     CLOUDY    73  58  59 S5        30.26S
$$

TNZ061-075-076-078-094-096-097-251600-
SOUTH MIDDLE TENNESSEE

CITY           SKY/WX    TMP DP  RH WIND       PRES   REMARKS
TULLAHOMA      SUNNY     72  61  68 S5        30.22S
WINCHESTER     SUNNY     77  57  50 S6        30.21S
COLUMBIA       MOSUNNY   75  75 100 S5        30.16S
SHELBYVILLE    CLOUDY    73  63  68 SE3       30.20S
$$

TNZ017-018-042-046-047-251600-
NORTHEAST TENNESSEE

CITY           SKY/WX    TMP DP  RH WIND       PRES   REMARKS
TRI CITIES     MOSUNNY   71  55  56 CALM      30.28R
$$

TNZ012-013-036-069-073-074-251600-
CENTRAL EAST TENNESSEE

CITY           SKY/WX    TMP DP  RH WIND       PRES   REMARKS
KNOXVILLE      CLOUDY    74  56  53 CALM      30.24S
OAK RIDGE      CLOUDY    70  58  65 CALM      30.26S
GATLINBURG     SUNNY     73  55  53 CALM      30.24F
$$

TNZ083-085-099-251600-
SOUTHEAST TENNESSEE

CITY           SKY/WX    TMP DP  RH WIND       PRES   REMARKS
CHATTANOOGA    CLOUDY    73  58  59 CALM      30.23F
$$

SKY/WX REPORTED AS FAIR MEANS FEW OR NO CLOUDS BELOW
12 THOUSAND FEET.




USA.gov is the U.S. government's official web portal to all federal, state and local government web resources and services.